Regional Weather Roundup
Issued by NWS

Home | Current Version | Previous Version | Graphics & Text | Print | Product List | Glossary On
Versions: 1 2 3 4 5 6 7 8 9 10 11 12 13 14 15 16 17 18 19 20 21 22 23 24 25 26 27 28 29 30 31 32 33 34 35 36 37 38 39 40 41 42 43 44 45 46 47 48 49 50
000
ASUS44 KMEG 210910
RWRTN
TENNESSEE HOURLY STATE WEATHER ROUNDUP
NATIONAL WEATHER SERVICE MEMPHIS TN
400 AM CDT SAT OCT 21 2017

TNZ002-004-019-021-049-052-054-088>092-211000-
WEST TENNESSEE

CITY           SKY/WX    TMP DP  RH WIND       PRES   REMARKS
MEMPHIS INTL   MOCLDY    65  54  67 S9        30.09S
NWS MEMPHIS      N/A     60 N/A N/A MISG        N/A
JACKSON        MOCLDY    57  50  77 S5        30.12S
DYERSBURG      CLOUDY    60  52  74 SE7       30.11F
SOMERVILLE     PTCLDY    61  52  72 MISG      30.10R
COVINGTON      CLOUDY    55  54  94 SE5       30.11R
UNION CITY     PTCLDY    55  50  82 CALM      30.11F
BOLIVAR        PTCLDY    55  50  82 CALM      30.12R
HUNTINGDON     PTCLDY    55  48  76 CALM      30.12S
LEXINGTON      PTCLDY    48  46  93 CALM      30.13F
SELMER         PTCLDY    57  48  72 S5        30.13R
SAVANNAH       PTCLDY    57  48  72 S7        30.13S
$$

TNZ008-025-027-028-033-062-065-066-211000-
NORTH MIDDLE TENNESSEE

CITY           SKY/WX    TMP DP  RH WIND       PRES   REMARKS
NASHVILLE      MOCLDY    49  45  86 S3        30.18S
PORTLAND       CLEAR     52  50  93 SE3       30.18R
CLARKSVILLE    PTCLDY    50  48  93 SE6       30.16S
SMYRNA         CLOUDY    46  45  96 CALM      30.20S FOG
COOKEVILLE     CLEAR     43  43 100 CALM      30.20R
GALLATIN       PTCLDY    48  46  93 CALM      30.21S
CROSSVILLE     CLOUDY    49  47  93 CALM      30.24S
$$

TNZ061-075-076-078-094-096-097-211000-
SOUTH MIDDLE TENNESSEE

CITY           SKY/WX    TMP DP  RH WIND       PRES   REMARKS
FAYETTEVILLE   CLEAR     50  46  87 CALM      30.18S
TULLAHOMA      CLEAR     54  46  76 SE6       30.20S
WINCHESTER     CLEAR     52  48  87 E6          N/A
COLUMBIA       CLEAR     45  45 100 CALM      30.15S
SHELBYVILLE    CLEAR     48  46  93 E3        30.19S
$$

TNZ017-018-042-046-047-211000-
NORTHEAST TENNESSEE

CITY           SKY/WX    TMP DP  RH WIND       PRES   REMARKS
TRI CITIES     PTCLDY    44  44 100 CALM      30.27R
ELIZABETHTON   CLEAR     48  45  87 E3        30.28R
$$

TNZ012-013-036-069-073-074-211000-
CENTRAL EAST TENNESSEE

CITY           SKY/WX    TMP DP  RH WIND       PRES   REMARKS
KNOXVILLE      CLEAR     49  49 100 CALM      30.23R
OAK RIDGE      CLEAR     49  49 100 CALM      30.25S
DOWNTOWN KNOXV FOG       48  48 100 CALM      30.25R VSB 1/2
GATLINBURG     CLEAR     46  45  93 CALM      30.24R
MORRISTOWN     CLEAR     50  46  87 CALM      30.24R
JACKSBORO      PTCLDY    45  45 100 CALM      30.28S
$$

TNZ083-085-099-211000-
SOUTHEAST TENNESSEE

CITY           SKY/WX    TMP DP  RH WIND       PRES   REMARKS
CHATTANOOGA    MOCLDY    52  49  89 CALM      30.24R
DAYTON         FOG       50  48  93 CALM      30.23R VSB 0
$$

SKY/WX REPORTED AS FAIR MEANS FEW OR NO CLOUDS BELOW
12 THOUSAND FEET.





USA.gov is the U.S. government's official web portal to all federal, state and local government web resources and services.